Showing default

TEMPSAT 1, 1512

Orbit data source: Space-Track

TEMPSAT 1, 1512 is a payload satellite owned by NRL (US) in LEO that was launched on Fri, 13 Aug 1965 UTC via a THOR ABLESTAR launch vehicle from the Air Force Western Test Range (AFWTR). Payload-class satellites include a variety of spacecraft equipped with specific instruments for various scientific and technological missions. These include communications satellites like Starlink; space stations such as the ISS; scientific satellites like the Hubble; Earth observation satellites from companies like Planet Labs, Umbra, and HawkEye 360; GPS; miniature CubeSats for education and research; and military/defense satellites.

Loading next visibility...
Identifier
1512, 1965-065E
Orbit
LEO
Country
Flag of USUS
Related business
Manufacturer
NRL
Mission
Operational spacecraft
Bus & Motor
NRL 14", Unknown motor
Mass
9 kg wet, 9 kg dry
Launch date (UTC)
1965-08-13 (61 years ago)
Launch vehicle
THOR ABLESTAR
Launch site
Air Force Western Test Range (AFWTR)
Object type
Payload
Rocket body
Debris
Shape & HBR
Unknown
Radar Cross Section
Small (<0.1 m²)

Expand to show TLE details & history
Last TLE update: 13 hours ago

TLE from 13 hours ago
0 TEMPSAT 1
1  1512U 65065E   26124.78175802  .00000043  00000-0  67504-4 0  9997
2  1512  90.0011 212.5853 0069858  12.2419 104.5263 13.33591951954260
Epoch: 2026-05-04T18:45Z
TLE epoch observation values (Epoch: 2026-05-04T18:45:43.892Z)
Latitude
62.54392°
Longitude
-111.5115°
Altitude
1,157.564 km
Speed
7.274 km/s
True Right ascension
02h 10m 20s
True Declination
62° 24' 38"
Sunlit
Object was in daylight at epoch
Visualization orbit readout
Latitude
Unknown
Longitude
Unknown
Altitude
Unknown
Speed
Unknown
Apparent Right ascension
Unknown
Apparent Declination
Unknown
Sunlit
N/A
Visualization observer readout
Local Sidereal Time
16:02:19
Azimuth
Unknown
Elevation
Unknown
Doppler factor
Unknown
Orbital elements
Apogee altitude
1,182.771 km
Perigee altitude
1,077.866 km
Semi-major axis
7,508.456 km
Eccentricity
0.00699
Inclination
90.0011°
RAAN
212.5853°
Arg. of periapsis
12.2419°
True anomaly
105.29951°
Mean anomaly
104.5263°
Eccentric anomaly
104.91308°
Mean motion
3.33593 °/min
Orbital period
107.92 mins
BSTAR
0.000067504
Loading maneuver chart data...
Computing Atmospheric mass density...
Loading historical data...
Loading historical data...
Loading historical data...
Loading historical data...
Loading historical data...
Loading historical data...
Loading historical data...

Documentation

Showing up to 5 results
|